Showing default

HULIANWANG DIGUI-39, 64960

Orbit data source: Space-Track

HULIANWANG DIGUI-39, 64960 is a payload satellite owned by Zhongguo Xingwang (CN) in LEO that was launched on Sun, 27 Jul 2025 UTC via a CHANG ZHENG 6A launch vehicle from the Taiyaun Space Center, China (TSC). Payload-class satellites include a variety of spacecraft equipped with specific instruments for various scientific and technological missions. These include communications satellites like Starlink; space stations such as the ISS; scientific satellites like the Hubble; Earth observation satellites from companies like Planet Labs, Umbra, and HawkEye 360; GPS; miniature CubeSats for education and research; and military/defense satellites.

Loading next visibility...
Identifier
64960, 2025-159E
Orbit
LEO
Country
Flag of CNCN / PRC
Related business
Manufacturer
CAST
Mission
Operational Civil Communications
Bus & Motor
XINGWANG C, Unknown motor
Mass
~700 kg wet, ~700 kg dry
Launch date (UTC)
2025-07-27 (1 year ago)
Launch vehicle
CHANG ZHENG 6A
Launch site
Taiyaun Space Center, China (TSC)
Object type
Payload
Rocket body
Debris
Shape & HBR
Box + 2 Pan, 5.0 m
Radar Cross Section
5.935 m², Large (>1 m²)

Expand to show TLE details & history
Last TLE update: 5 hours ago

TLE from 5 hours ago
0 HULIANWANG DIGUI-39
1 64960U 25159E   26265.90888034 -.00000052  00000-0 -15451-3 0  9996
2 64960  86.4898 249.3585 0002057  84.1587 275.9781 13.24400830 56064
Epoch: 2026-09-22T21:48Z
TLE epoch observation values (Epoch: 2026-09-22T21:48:47.261Z)
Latitude
-0.00006°
Longitude
-79.60602°
Altitude
1,170.69 km
Speed
7.268 km/s
True Right ascension
16h 37m 26s
True Declination
0° 00' 00"
Sunlit
Object was in daylight at epoch
Visualization orbit readout
Latitude
Unknown
Longitude
Unknown
Altitude
Unknown
Speed
Unknown
Apparent Right ascension
Unknown
Apparent Declination
Unknown
Sunlit
N/A
Visualization observer readout
Local Sidereal Time
20:12:24
Azimuth
Unknown
Elevation
Unknown
Doppler factor
Unknown
Orbital elements
Apogee altitude
1,166.629 km
Perigee altitude
1,163.525 km
Semi-major axis
7,543.214 km
Eccentricity
0.00021
Inclination
86.4898°
RAAN
249.3585°
Arg. of periapsis
84.1587°
True anomaly
275.95466°
Mean anomaly
275.9781°
Eccentric anomaly
275.96638°
Mean motion
3.3129 °/min
Orbital period
108.67 mins
BSTAR
-0.00015451
Loading maneuver chart data...
Computing Atmospheric mass density...
Loading historical data...
Loading historical data...
Loading historical data...
Loading historical data...
Loading historical data...
Loading historical data...
Loading historical data...

Documentation

Showing up to 5 results
|